EW8041 Weather Reports


time (UTC)temp
C
wind
direction
speed
KPH
gust
KPH
rain 1hr
cm
rain 24hr
cm
rain mn
cm
humidity
%
barometer
mb
20211017145529 15 304 1.6 4.8 0.00 0.00 0.00 62 1022.2
20211017144530 15 337 1.6 4.8 0.00 0.00 0.00 66 1022.1
20211017143531 14 293 0.0 4.8 0.00 0.00 0.00 68 1022.1
20211017142533 14 113 0.0 1.6 0.00 0.00 0.00 71 1022.1
20211017141516 13 0.0 3.2 0.00 0.00 0.00 70 1022.1
20211017140518 13 321 0.0 4.8 0.00 0.00 0.00 73 1022.0
20211017135519 13 0.0 0.0 0.00 0.00 0.00 76 1021.9
20211017134521 12 0.0 0.0 0.00 0.00 0.00 77 1022.0
20211017133516 11 0.0 0.0 0.00 0.00 0.00 80 1022.0
20211017132523 11 0.0 0.0 0.00 0.00 0.00 82 1021.8
20211017131525 10 0.0 0.0 0.00 0.00 0.00 84 1021.9
20211017130526 10 0.0 0.0 0.00 0.00 0.00 85 1021.8
20211017125528 9 0.0 0.0 0.00 0.00 0.00 87 1021.7
20211017124529 8 0.0 0.0 0.00 0.00 0.00 94 1021.6
20211017123531 7 0.0 0.0 0.00 0.00 0.00 95 1021.7
20211017122532 7 0.0 0.0 0.00 0.00 0.00 96 1021.5
20211017121515 6 0.0 0.0 0.00 0.00 0.00 97 1021.5
20211017120517 6 0.0 0.0 0.00 0.00 0.00 97 1021.4
20211017115518 6 0.0 0.0 0.00 0.00 0.00 97 1021.3
20211017114519 6 0.0 0.0 0.00 0.00 0.00 97 1021.2
20211017113521 6 0.0 0.0 0.00 0.00 0.00 97 1021.2
20211017112516 6 0.0 0.0 0.00 0.00 0.00 97 1021.1
20211017111524 7 0.0 0.0 0.00 0.00 0.00 97 1021.1
20211017110525 7 0.0 0.0 0.00 0.00 0.00 97 1021.1
20211017105527 7 0.0 0.0 0.00 0.00 0.00 96 1021.0
20211017104529 7 0.0 0.0 0.00 0.00 0.00 96 1021.0
20211017103530 7 0.0 0.0 0.00 0.00 0.00 95 1020.9
20211017102531 7 0.0 0.0 0.00 0.00 0.00 94 1020.9
20211017101532 7 0.0 0.0 0.00 0.00 0.00 94 1020.8
20211017100515 7 0.0 0.0 0.00 0.00 0.00 94 1020.7
20211017095517 7 0.0 0.0 0.00 0.00 0.00 95 1020.7
20211017094518 7 0.0 0.0 0.00 0.00 0.00 94 1020.7
20211017093520 7 0.0 0.0 0.00 0.00 0.00 94 1020.7
20211017092521 7 0.0 0.0 0.00 0.00 0.00 94 1020.6
20211017091516 7 0.0 0.0 0.00 0.00 0.00 94 1020.5
20211017090518 7 0.0 0.0 0.00 0.00 0.00 92 1020.4
20211017085520 8 0.0 0.0 0.00 0.00 0.00 91 1020.5
20211017084521 8 0.0 0.0 0.00 0.00 0.00 93 1020.5
20211017083526 8 0.0 0.0 0.00 0.00 0.00 91 1020.6
20211017082525 8 0.0 0.0 0.00 0.03 0.00 91 1020.6
20211017081526 8 0.0 0.0 0.00 0.03 0.00 89 1020.4
20211017080528 8 0.0 0.0 0.00 0.03 0.00 89 1020.5
20211017075529 8 0.0 0.0 0.00 0.03 0.00 87 1020.5
20211017074531 8 0.0 0.0 0.00 0.03 0.00 87 1020.4
20211017073532 9 0.0 0.0 0.00 0.03 0.00 86 1020.4
20211017072516 9 0.0 0.0 0.00 0.03 0.00 87 1020.4
20211017071517 9 0.0 0.0 0.00 0.05 0.00 86 1020.5
20211017070518 8 0.0 0.0 0.00 0.05 0.00 89 1020.4
20211017065520 8 0.0 0.0 0.00 0.05 0.00 91 1020.4
20211017064516 8 0.0 0.0 0.00 0.05 0.00 90 1020.3
20211017063517 8 0.0 0.0 0.00 0.05 0.00 91 1020.3
20211017062518 8 0.0 0.0 0.00 0.05 0.00 93 1020.2
20211017061519 8 0.0 0.0 0.00 0.08 0.00 94 1020.1
20211017060520 8 0.0 0.0 0.00 0.10 0.00 94 1020.1
20211017055522 8 0.0 0.0 0.00 0.10 0.00 92 1020.0
20211017054523 8 0.0 0.0 0.00 0.18 0.00 93 1020.0
20211017053525 8 0.0 0.0 0.00 0.48 0.00 94 1020.0
20211017052526 8 0.0 0.0 0.00 0.58 0.00 92 1019.9
20211017051527 8 0.0 0.0 0.00 0.97 0.00 92 1020.1
20211017050523 8 0.0 0.0 0.00 1.19 0.00 91 1020.0
20211017045518 9 0.0 0.0 0.00 1.22 1.22 92 1019.9
20211017044527 9 0.0 0.0 0.00 1.22 1.22 91 1019.9
20211017043528 9 0.0 0.0 0.00 1.22 1.22 91 1020.0
20211017042529 9 0.0 0.0 0.00 1.22 1.22 91 1020.0
20211017041530 10 0.0 0.0 0.00 1.22 1.22 89 1020.0
20211017040527 10 0.0 0.0 0.00 1.22 1.22 90 1020.1
20211017035528 10 0.0 0.0 0.00 1.22 1.22 88 1020.1
20211017034529 10 0.0 0.0 0.00 2.06 1.22 86 1020.0
20211017033530 10 0.0 0.0 0.00 2.06 1.22 87 1020.0
20211017032531 10 0.0 0.0 0.00 2.06 1.22 86 1020.0
20211017031532 10 0.0 0.0 0.00 2.06 1.22 85 1020.0
20211017030515 11 0.0 0.0 0.00 2.06 1.22 84 1019.9
20211017025523 11 0.0 0.0 0.00 2.06 1.22 81 1019.7
20211017024519 11 0.0 0.0 0.00 2.06 1.22 79 1019.6
20211017023532 11 0.0 0.0 0.00 2.06 1.22 77 1019.6
20211017022515 11 0.0 0.0 0.00 2.06 1.22 74 1019.6
20211017021517 12 0.0 0.0 0.00 2.06 1.22 73 1019.5
20211017020518 12 0.0 0.0 0.00 2.08 1.22 72 1019.4
20211017015519 12 0.0 0.0 0.00 2.08 1.22 73 1019.3
20211017014521 12 0.0 0.0 0.00 2.08 1.22 73 1019.3
20211017013521 12 0.0 0.0 0.00 2.11 1.22 75 1019.3
20211017012522 12 0.0 0.0 0.00 2.13 1.22 72 1019.2
20211017011523 13 0.0 0.0 0.00 2.13 1.22 70 1019.1
20211017010525 13 0.0 0.0 0.00 2.54 1.22 68 1019.0
20211017005526 13 23 0.0 1.6 0.00 2.74 1.22 66 1018.8
20211017004521 13 293 1.6 3.2 0.00 2.74 1.22 65 1018.7
20211017003517 14 0.0 0.0 0.00 2.74 1.22 65 1018.7
20211017002525 14 0.0 0.0 0.00 2.74 1.22 64 1018.7
20211017001526 15 0.0 0.0 0.00 2.74 1.22 63 1018.5
20211017000528 15 0.0 0.0 0.00 2.74 1.22 62 1018.4
20211016235529 15 331 1.6 6.4 0.00 2.74 1.22 55 1018.3
20211016234530 15 332 1.6 6.4 0.00 2.74 1.22 55 1018.2
20211016233526 16 301 3.2 6.4 0.00 2.74 1.22 54 1018.1
20211016232528 16 289 3.2 6.4 0.00 2.74 1.22 53 1017.9
20211016231530 16 326 3.2 11.3 0.00 2.74 1.22 51 1017.9
20211016230532 16 330 3.2 8.0 0.00 2.74 1.22 50 1017.9
20211016225532 17 295 4.8 8.0 0.00 2.74 1.22 49 1017.9
20211016224515 17 323 6.4 11.3 0.00 2.74 1.22 49 1017.8
20211016223516 17 330 6.4 9.7 0.00 2.74 1.22 48 1017.8
20211016222518 17 349 6.4 17.7 0.00 2.74 1.22 46 1017.8
20211016221520 17 329 8.0 16.1 0.00 2.74 1.22 45 1017.6
20211016220521 18 336 6.4 9.7 0.00 2.74 1.22 45 1017.7
20211016215522 18 284 6.4 12.9 0.00 2.74 1.22 45 1017.5
20211016214524 18 321 4.8 11.3 0.00 2.74 1.22 44 1017.5
20211016213525 18 330 8.0 12.9 0.00 2.74 1.22 43 1017.5
20211016212526 18 343 6.4 11.3 0.00 2.74 1.22 44 1017.4
20211016211527 18 317 6.4 11.3 0.00 2.74 1.22 45 1017.3
20211016210523 18 306 8.0 11.3 0.00 2.74 1.22 45 1017.3
20211016205524 18 315 8.0 12.9 0.00 2.74 1.22 43 1017.4
20211016204525 18 297 4.8 11.3 0.00 2.74 1.22 44 1017.4
20211016203527 18 338 8.0 11.3 0.00 2.74 1.22 43 1017.4
20211016202522 18 337 4.8 9.7 0.00 2.74 1.22 44 1017.3
20211016201517 18 43 4.8 6.4 0.00 2.74 1.22 42 1017.3
20211016200536 18 317 8.0 12.9 0.00 2.74 1.22 42 1017.2
20211016195521 18 331 6.4 12.9 0.00 2.74 1.22 40 1017.2
20211016194523 18 319 8.0 14.5 0.00 2.74 1.22 39 1017.1
20211016193524 18 331 8.0 14.5 0.00 2.74 1.22 42 1017.0
20211016192525 18 301 8.0 17.7 0.00 2.74 1.22 43 1017.0
20211016191526 18 347 9.7 14.5 0.00 2.74 1.22 43 1017.1
20211016190528 18 319 8.0 24.1 0.00 2.74 1.22 45 1017.3
20211016185529 18 281 3.2 9.7 0.00 2.74 1.22 47 1017.5
20211016184530 18 360 4.8 8.0 0.00 2.74 1.22 47 1017.6
20211016183531 18 324 4.8 11.3 0.00 2.74 1.22 46 1017.7
20211016182526 18 291 8.0 14.5 0.00 2.74 1.22 44 1017.8
20211016181516 18 32 8.0 11.3 0.00 2.74 1.22 47 1017.8
20211016180516 18 332 6.4 11.3 0.00 2.74 1.22 46 1017.8
20211016175518 18 321 9.7 16.1 0.00 2.74 1.22 45 1018.0
20211016174520 18 325 6.4 11.3 0.00 2.74 1.22 47 1018.0
20211016173516 18 291 8.0 11.3 0.00 2.74 1.22 46 1018.2
20211016172517 18 300 9.7 17.7 0.00 2.74 1.22 47 1018.5
20211016171518 18 349 4.8 8.0 0.00 2.74 1.22 50 1018.6
20211016170520 18 339 4.8 11.3 0.00 2.74 1.22 50 1018.6
20211016165521 18 291 8.0 16.1 0.00 2.74 1.22 50 1018.7
20211016164522 18 313 6.4 11.3 0.00 2.74 1.22 51 1018.7
20211016163523 -17 305 9.7 11.3 0.00 2.74 1.22 1018.7
20211016162524 18 308 9.7 17.7 0.00 2.74 1.22 50 1018.6
20211016161526 18 2 4.8 8.0 0.00 2.74 1.22 55 1018.6
20211016160521 17 58 4.8 6.4 0.00 2.74 1.22 59 1018.5
20211016155517 17 300 8.0 14.5 0.00 2.74 1.22 56 1018.4
20211016154530 17 303 8.0 14.5 0.00 2.74 1.22 57 1018.4
20211016153532 17 289 3.2 8.0 0.00 2.74 1.22 61 1018.4
20211016152515 17 283 4.8 9.7 0.00 2.74 1.22 61 1018.5
20211016151516 16 307 4.8 8.0 0.00 2.74 1.22 61 1018.4
20211016150518 15 314 9.7 19.3 0.00 2.74 1.22 63 1018.4